Jackson, KY

6:49 PM EST on November 20, 2019 (GMT -0500)
Carroll

Weather History for KJKL - September, 2019

Change the Weather History Date:

Sunday, September 15, 2019

  Actual Average Record
Temperature  
Mean Temperature 77 °F 68 °F  
Max Temperature 92 °F 78 °F 94 °F (1991)
Min Temperature 61 °F 59 °F 46 °F (1985)
Degree Days  
Heating Degree Days 0 1  
Month to date heating degree days 0 7  
Since 1 July heating degree days 0 9  
Cooling Degree Days 12 5  
Month to date cooling degree days 186 95  
Year to date cooling degree days 1323 1073  
Growing Degree Days 26 (Base 50)    
Moisture  
Dew Point 52 °F    
Average Humidity 53    
Maximum Humidity 84    
Minimum Humidity 21    
Precipitation  
Precipitation 0.00 in 0.12 in 2.23 in (1993)
Month to date precipitation 0.00 1.68  
Year to date precipitation 39.46 35.23  
Snow  
Snow 0.00 in 0.00 in - ()
Month to date snowfall 0.0 0.0  
Since 1 July snowfall 0.0 0.0  
Since 1 September snowfall 0.0 0.0  
Snow Depth 0.00 in    
Sea Level Pressure  
Sea Level Pressure 30.15 in    
Wind  
Wind Speed 1 mph (East)    
Max Wind Speed 7 mph    
Max Gust Speed 11 mph    
Visibility 10 miles    
Events      
T = Trace of Precipitation, MM = Missing Value Source: NWS Daily Summary

Daily Weather History Graph

Daily Weather History Graph

Search for Another Location

Airport or City:

Astronomy

Sep. 15, 2019 Rise Set
Actual Time 7:15 AM EDT 7:41 PM EDT
Civil Twilight 6:48 AM EDT 8:07 PM EDT
Nautical Twilight 6:17 AM EDT 8:38 PM EDT
Astronomical Twilight 5:46 AM EDT 9:09 PM EDT
Moon 8:49 PM EDT (9/15) 8:23 AM EDT (9/15)
Length of Visible Light 13h 18m
Length of Day
12h 26m
Full, 98% of the Moon is Illuminated
Sep 15
Full
Sep 21
Last Quarter
Sep 28
New
Oct 5
First Quarter
Oct 13
Full

Hourly Weather History & Observations

Time (EDT) Temp. Heat Index Dew Point Humidity Pressure Visibility Wind Dir Wind Speed Gust Speed Precip Events Conditions
12:53 AM 66.0 °F - 54.0 °F 65% 30.21 in 10.0 mi Calm Calm - N/A   Clear
1:53 AM 64.0 °F - 55.0 °F 73% 30.21 in 10.0 mi Calm Calm - N/A   Clear
2:53 AM 64.0 °F - 55.0 °F 73% 30.20 in 10.0 mi Calm Calm - N/A   Clear
4:53 AM 63.0 °F - 55.0 °F 75% 30.19 in 10.0 mi Variable 3.5 mph - N/A   Clear
5:53 AM 63.0 °F - 54.0 °F 72% 30.19 in 10.0 mi Calm Calm - N/A   Clear
6:53 AM 61.0 °F - 55.0 °F 81% 30.19 in 10.0 mi Calm Calm - N/A   Clear
7:53 AM 61.0 °F - 55.0 °F 81% 30.19 in 10.0 mi Calm Calm - N/A   Clear
10:53 AM 73.9 °F - 57.0 °F 55% 30.21 in 10.0 mi East 3.5 mph - N/A   Clear
11:53 AM 80.1 °F 80.2 °F 55.9 °F 43% 30.19 in 10.0 mi Calm Calm - N/A   Clear
12:53 PM 82.9 °F - 52.0 °F 34% 30.17 in 10.0 mi Calm Calm - N/A   Clear
1:53 PM 86.0 °F - 51.1 °F 30% 30.16 in 10.0 mi Variable 3.5 mph - N/A   Clear
2:53 PM 89.1 °F - 45.0 °F 22% 30.13 in 10.0 mi Variable 3.5 mph - N/A   Clear
3:53 PM 91.9 °F - 46.9 °F 21% 30.10 in 10.0 mi Variable 3.5 mph - N/A   Clear
4:53 PM 91.0 °F - 46.0 °F 21% 30.09 in 10.0 mi Calm Calm - N/A   Clear
5:53 PM 89.1 °F - 46.0 °F 22% 30.07 in 10.0 mi Calm Calm - N/A   Clear
6:53 PM 86.0 °F - 46.0 °F 25% 30.08 in 10.0 mi Calm Calm - 0.00 in   Clear
7:53 PM 80.1 °F - 48.0 °F 32% 30.09 in 10.0 mi Calm Calm - N/A   Clear
10:53 PM 77.0 °F - 51.1 °F 40% 30.09 in 10.0 mi Calm Calm - N/A   Clear
11:53 PM 73.9 °F - 52.0 °F 46% 30.09 in 10.0 mi Calm Calm - N/A   Clear